Regional Weather Roundup
Issued by NWS

Home | Current Version | Previous Version | Graphics & Text | Print | Product List | Glossary On
Versions: 1 2 3 4 5 6 7 8 9 10 11 12 13 14 15 16 17 18 19 20 21 22 23 24 25 26 27 28 29 30 31 32 33 34 35 36 37 38 39 40 41 42 43 44 45 46 47 48 49 50
000
ASUS43 KIND 250909
RWRIN

WEATHER ROUNDUP FOR INDIANA
NATIONAL WEATHER SERVICE INDIANAPOLIS IN
400 AM EST SUN JAN 25 2015

NOTE: "FAIR" INDICATES FEW OR NO CLOUDS BELOW 12,000 FEET WITH NO
SIGNIFICANT WEATHER AND/OR OBSTRUCTIONS TO VISIBILITY.

* - STATION DOES NOT REPORT WEATHER SUCH AS PRECIPITATION OR FOG.

+ - STATION NOT QUALITY CONTROLLED BY THE NATIONAL WEATHER SERVICE.
    USE DATA WITH CAUTION...ESPECIALLY DEWPOINT AND RELATIVE
    HUMIDITY OBSERVATIONS.

INZ001>003-010>013-019-020-251000-
NORTHWEST INDIANA

CITY           SKY/WX    TMP DP  RH WIND       PRES   REMARKS
GARY /AIRPORT/ CLOUDY    35  31  84 NE7       29.67F HAZE    WCI  29
KNOX *+        CLOUDY    31  27  85 CALM      29.68S
LA PORTE +     CLOUDY    35  35 100 CALM      29.68F FOG
MICHIGAN CITY+ CLOUDY    32  32 100 CALM      29.69S FOG
MONTICELLO +   CLOUDY    32  31  99 CALM      29.67S FOG
RENSSELAER +   MOCLDY    32  32 100 NE3       29.66F FOG
VALPARAISO     CLOUDY    32  32 100 CALM      29.67F FOG

$$

LMZ046-743>745-251000-
SOUTHERN LAKE MICHIGAN

STATION/POSITION TIME  TEMP WIND        PRES
                       AIR  DIR/SP/G
                 (UTC) (F)  (DEG/KT/KT) (MB)
MICHIGAN CITY    0900   34   20/  3/  3   N/A

$$

INZ004-005-014>016-021>024-251000-
NORTH CENTRAL INDIANA

CITY           SKY/WX    TMP DP  RH WIND       PRES   REMARKS
GOSHEN         CLOUDY    35  33  92 CALM      29.68S FOG
LOGANSPORT +   CLOUDY    32  32 100 E3        29.69S
PERU/GRISSOM   CLOUDY    31  30  95 E3        29.68S
ROCHESTER +    CLOUDY    34  34 100 CALM      29.68F FOG
SOUTH BEND     CLOUDY    35  31  85 N6        29.69F FOG     WCI  30
WARSAW +       CLOUDY    32  32 100 CALM      29.68F FOG

$$

INZ006>009-017-018-025>027-251000-
NORTHEAST INDIANA

CITY           SKY/WX    TMP DP  RH WIND       PRES   REMARKS
ANGOLA *+      CLOUDY    32  23  69 CALM      29.69S
AUBURN +       CLOUDY    34  32  93 CALM      29.69F FOG
FORT WAYNE     CLOUDY    34  32  92 S3        29.70S
HUNTINGTON +   MOCLDY    33  29  85 CALM      29.69F

$$

INZ028-029-035-036-043>045-051>053-251000-
WEST CENTRAL INDIANA

CITY           SKY/WX    TMP DP  RH WIND       PRES   REMARKS
CRAWFORDSVL +  CLOUDY    32  27  80 S5        29.67  WCI  27
GREENCASTLE +  CLOUDY    36  28  75 S5        29.69S
LAFAYETTE      MOCLDY    32  31  96 CALM      29.66F
TERRE HAUTE    CLOUDY    36  30  79 SE5       29.68F

$$

INZ030>032-037>040-046>048-054>057-064-065-251000-
CENTRAL INDIANA

CITY           SKY/WX    TMP DP  RH WIND       PRES   REMARKS
CP ATTERBURY + CLOUDY    37  32  81 S5        29.72F
INDIANAPOLIS   CLOUDY    33  30  88 S7        29.69F WCI  27
-EAGLE CREEK   CLOUDY    33  30  88 SE3       29.68F
KOKOMO *+      CLOUDY    32  30  93 S5        29.68F WCI  27
MARION +       CLOUDY    32  31  96 S5        29.70S WCI  27
MT COMFORT *+  CLOUDY    34  30  86 S6        29.70F WCI  29
SHELBYVILLE    CLOUDY    36  30  79 S7        29.70F
ZIONSVILLE +   CLOUDY    34  30  86 S5        29.69S WCI  30

$$

INZ033-034-041-042-049-050-058-059-251000-
EAST CENTRAL INDIANA

CITY           SKY/WX    TMP DP  RH WIND       PRES   REMARKS
MUNCIE         MOCLDY    35  30  82 S7        29.69F WCI  29

$$

INZ060-061-067>069-081>083-085>088-251000-
SOUTHWEST INDIANA

CITY           SKY/WX    TMP DP  RH WIND       PRES   REMARKS
EVANSVILLE     CLOUDY    43  32  65 SW10      29.74F
HUNTINGBURG *+ CLOUDY    39  30  70 S10       29.74F
WASHINGTON +   CLOUDY    39  29  67 S12       29.70F

$$

INZ062-063-066-070>080-084-089>092-251000-
SOUTH CENTRAL AND SOUTHEAST INDIANA

CITY           SKY/WX    TMP DP  RH WIND       PRES   REMARKS
BLOOMINGTON    CLOUDY    39  31  72 S8        29.70F
SEYMOUR +      CLOUDY    37  30  75 CALM      29.74

$$



USA.gov is the U.S. government's official web portal to all federal, state and local government web resources and services.